Regional Weather Roundup
Issued by NWS Green Bay, WI

Home | Current Version | Previous Version | Graphics & Text | Print | Product List | Glossary Off
Versions: 1 2 3 4 5 6 7 8 9 10 11 12 13 14 15 16 17 18 19 20 21 22 23 24 25 26 27 28 29 30 31 32 33 34 35 36 37 38 39 40 41 42 43 44 45 46 47 48 49 50

000
ASUS43 KGRB 201111
RWRGRB

NORTH-CENTRAL AND NORTHEAST WISCONSIN REGIONAL WEATHER ROUNDUP
NATIONAL WEATHER SERVICE GREEN BAY WI
600 AM CDT THU JUL 20 2017

WIZ005-009-010>012-018-019-201200-
NORTH CENTRAL WISCONSIN

CITY           SKY/WX    TMP DP  RH WIND       PRES   REMARKS
IRONWOOD       CLEAR     60  58  92 W6        29.95R
MANITOWISH WTR CLEAR     57  57 100 CALM      29.97R
ARBOR VITAE    CLEAR     59  58  94 CALM      29.97R
EAGLE RIVER    PTCLDY    56  56 100 CALM      29.96R FOG
LAND O LAKES   CLEAR     53  53 100 CALM      29.98R FOG
RHINELANDER    CLEAR     61  61 100 W6        29.98R
PHILLIPS       CLEAR     60  60 100 CALM      29.98S
ANTIGO         CLOUDY    65  64  97 W9        29.98R
TOMAHAWK         N/A     55  54  96 CALM      29.99R FOG
MERRILL        CLOUDY    63  63 100 CALM      29.98R
$$

WIZ013-073-201200-
NORTHEAST WISCONSIN

CITY           SKY/WX    TMP DP  RH WIND       PRES   REMARKS
IRON MOUNTAIN  CLEAR     56  52  86 CALM      29.92R
MARINETTE      CLEAR     63  58  83 CALM      29.93R
OCONTO         CLOUDY    67  64  91 SW9       29.94R
$$

WIZ017-030-035>037-045-201200-
CENTRAL WISCONSIN

CITY           SKY/WX    TMP DP  RH WIND       PRES   REMARKS
MEDFORD        FOG       65  64  99 W3        29.98S VSB 1/2
WAUSAU         CLOUDY    68  66  93 W8        29.97R
MOSINEE        CLOUDY    68  66  94 SW8       30.00R
MARSHFIELD     CLOUDY    67  65  93 W6        29.98R
WISC RAPIDS    CLOUDY    68  67  96 SW7       29.99S
STEVENS POINT  CLOUDY    66  66 100 SW7       30.00R
WAUPACA        CLOUDY    70  69  96 W7        29.98S
SHAWANO        CLOUDY    72  66  83 SW8       29.96R
CLINTONVILLE   CLOUDY    70  64  83 W7        29.98R
WAUTOMA        CLOUDY    67  66  97 SW3       29.99S
$$

WIZ038-039-048-051-201200-
FOX VALLEY

CITY           SKY/WX    TMP DP  RH WIND       PRES   REMARKS
NWS GREEN BAY  CLOUDY    69  68  96 W9        29.97R
APPLETON       PTCLDY    66  66 100 W12       29.97R
OSHKOSH        CLOUDY    68  65  90 VRB6      29.98R
FOND DU LAC    LGT RAIN  68  65  90 SW6       29.99R
$$

WIZ022-050-052-201200-
EAST CENTRAL WISCONSIN

CITY           SKY/WX    TMP DP  RH WIND       PRES   REMARKS
EPHRAIM        FAIR      65  57  76 W3        29.91S
WASHINGTON ISL CLOUDY    58  58  98 CALM      29.90R
STURGEON BAY     N/A     70  66  87 W14G20    29.94R
MANITOWOC      CLOUDY    70  66  87 W8        29.97R
SHEBOYGAN      CLOUDY    68  67  96 W6        29.98R
$$

LMZ563-521-522-541>543-201200-
LAKESHORE

STATION/POSITION TIME  TEMP    WIND        PRES    VSBY  WAVE
                       AIR SEA DIR/SP/G                  HT/PER
                 (UTC) (F)     (DEG/KT/KT) (MB)    (MI)  (FT/S)
SHEBOYGAN LKSHOR 1100   69     240/  5/  7 1014.7R
KEWAUNEE LKSHORE 1048   71     270/  8/ 15 1013.3R
NORTHPORT PIER   1040   63     210/  2/  4 1012.5R
N MID LAKE BUOY  1050   67 64  210/ 10/ 12 1012.7R         1
S GREEN BAY BUOY 1100   71 71  230/ 17/ 19 1013.6
SISTER BAY LKSHO 1017   69     310/  6/  7   N/A
CHAMBERS ISLAND  1040   68     230/  3/  5 1012.2R
MENOMINEE LKSHOR 1048   66     250/  6/ 10 1013.0R
$$




USA.gov is the U.S. government's official web portal to all federal, state and local government web resources and services.